Martinsburg, WV

2:03 PM EDT on March 27, 2017 (GMT -0400)
Eastern W Va Regional-Shepherd

Weather History for KMRB - November, 2012

Change the Weather History Date:

Monday, November 5, 2012

  Actual Average Record
Temperature  
Mean Temperature 38 °F 48 °F  
Max Temperature 48 °F 59 °F 81 °F (1975)
Min Temperature 28 °F 37 °F 23 °F (1951)
Degree Days  
Heating Degree Days 27 17  
Month to date heating degree days 112 83  
Since 1 July heating degree days 502 529  
Cooling Degree Days 0 0  
Month to date cooling degree days 0 0  
Year to date cooling degree days 1145 895  
Moisture  
Dew Point 25 °F    
Average Humidity 59    
Maximum Humidity 78    
Minimum Humidity 39    
Precipitation  
Precipitation 0.00 in 0.10 in 1.09 in (1986)
Month to date precipitation T 0.52  
Year to date precipitation 28.63 33.38  
Sea Level Pressure  
Sea Level Pressure 30.12 in    
Wind  
Wind Speed 7 mph (NNW)    
Max Wind Speed 17 mph    
Max Gust Speed 23 mph    
Visibility 10 miles    
Events      
T = Trace of Precipitation, MM = Missing Value Source: NWS Daily Summary

Daily Weather History Graph

Daily Weather History Graph

Search for Another Location

Airport or City:

Trip Planner

Search our weather history database for the weather conditions in past years. The results will help you decide how hot, cold, wet, or windy it might be!

Date:

Astronomy

Nov. 05, 2012 Rise Set
Actual Time 6:44 AM EST 5:05 PM EST
Civil Twilight 6:16 AM EST 5:33 PM EST
Nautical Twilight 5:44 AM EST 6:05 PM EST
Astronomical Twilight 5:13 AM EST 6:37 PM EST
Moon 10:41 PM EST (11/5) 12:03 PM EST (11/5)
Length of Visible Light 11h 16m
Length of Day
10h 20m
Waning Gibbous, 63% of the Moon is Illuminated
Nov 5
Waning Gibbous
Nov 6
Last Quarter
Nov 13
New
Nov 20
First Quarter
Nov 28
Full

Hourly Weather History & Observations

Time (EST) Temp. Windchill Dew Point Humidity Pressure Visibility Wind Dir Wind Speed Gust Speed Precip Events Conditions
12:53 AM 39.9 °F 35.1 °F 25.0 °F 55% 30.07 in 10.0 mi NW 6.9 mph - N/A   Overcast
1:53 AM 39.9 °F 33.9 °F 24.1 °F 53% 30.07 in 10.0 mi NW 9.2 mph - N/A   Overcast
2:53 AM 39.0 °F 33.4 °F 24.1 °F 55% 30.07 in 10.0 mi NW 8.1 mph - N/A   Overcast
3:53 AM 39.0 °F 33.4 °F 24.1 °F 55% 30.08 in 10.0 mi NNW 8.1 mph - N/A   Overcast
4:53 AM 37.9 °F 30.9 °F 23.0 °F 55% 30.09 in 10.0 mi NNW 10.4 mph - N/A   Overcast
5:53 AM 37.9 °F 32.7 °F 24.1 °F 57% 30.10 in 10.0 mi NNW 6.9 mph - N/A   Overcast
6:53 AM 37.9 °F 30.0 °F 23.0 °F 55% 30.11 in 10.0 mi NNW 12.7 mph 20.7 mph N/A   Overcast
7:53 AM 39.0 °F 33.4 °F 23.0 °F 53% 30.13 in 10.0 mi NNW 8.1 mph - N/A   Overcast
8:53 AM 39.9 °F 33.4 °F 25.0 °F 55% 30.13 in 10.0 mi NNW 10.4 mph - N/A   Overcast
9:53 AM 43.0 °F 36.0 °F 25.0 °F 49% 30.13 in 10.0 mi North 13.8 mph - N/A   Scattered Clouds
10:53 AM 45.0 °F 39.7 °F 25.0 °F 46% 30.13 in 10.0 mi NNW 10.4 mph - N/A   Partly Cloudy
11:53 AM 46.9 °F - 26.1 °F 44% 30.12 in 10.0 mi NNW 9.2 mph - N/A   Scattered Clouds
12:53 PM 46.9 °F - 26.1 °F 44% 30.10 in 10.0 mi NNW 10.4 mph - N/A   Partly Cloudy
1:53 PM 48.0 °F - 25.0 °F 41% 30.09 in 10.0 mi NNW 9.2 mph 16.1 mph N/A   Clear
2:53 PM 48.0 °F - 25.0 °F 41% 30.09 in 10.0 mi WNW 11.5 mph 16.1 mph N/A   Clear
3:53 PM 46.9 °F - 25.0 °F 42% 30.09 in 10.0 mi NNW 8.1 mph - N/A   Clear
4:53 PM 45.0 °F 41.2 °F 25.0 °F 46% 30.10 in 10.0 mi North 6.9 mph - N/A   Clear
5:53 PM 42.1 °F 38.4 °F 24.1 °F 49% 30.12 in 10.0 mi North 5.8 mph - N/A   Clear
6:53 PM 39.0 °F 34.8 °F 25.0 °F 57% 30.15 in 10.0 mi NE 5.8 mph - N/A   Clear
7:53 PM 37.9 °F 34.4 °F 25.0 °F 60% 30.17 in 10.0 mi North 4.6 mph - N/A   Clear
8:53 PM 36.0 °F - 25.0 °F 64% 30.18 in 10.0 mi Calm Calm - N/A   Clear
9:53 PM 35.1 °F - 24.1 °F 64% 30.19 in 10.0 mi Calm Calm - N/A   Clear
10:53 PM 30.9 °F - 24.1 °F 76% 30.19 in 10.0 mi Calm Calm - N/A   Scattered Clouds
11:53 PM 28.9 °F - 24.1 °F 82% 30.19 in 10.0 mi Calm Calm - N/A   Scattered Clouds